User: anonymous   Login
Location: ??????
(41.3164°N, 22.6615°E)
Time: 05:12:47
(UTC+00:00)
Language:

Cosmos 1300 - Orbit

View from above orbital plane
View from above orbital plane
View from above satellite
View from above satellite

Ground track
Ground track

The orbit data is extracted from the following two-line orbital elements,

1 12785U 81082A   22017.81860075  .00002031  00000-0  96875-4 0  9994
2 12785  82.5017 214.6505 0001748 125.6488 244.9196 15.18542538205975
Epoch (UTC): 17 January 2022 19:38:47
Eccentricity: 0.0001748
inclination: 82.5017°
perigee height: 509 km
apogee height: 511 km
right ascension of ascending node: 214.6505°
argument of perigee: 125.6488°
revolutions per day: 15.18542538
mean anomaly at epoch: 244.9196°
orbit number at epoch: 20597

The dashed part of the orbit path shows where the satellite is in the earth's shadow,  

DLR